Location: Cazarilh
(42.9578°N, 0.5819°E)
Time: 20:02:34
(UTC+00:00)

Cosmos 1515 - Pass Details

Date: 11 December 2019
Orbit: 507 x 516 km, 82.5° (Epoch: 28 January)

Event Time Altitude Azimuth Distance (km) Brightness Sun altitude
Exits shadow 06:06:25 - 346° (NNW) 2,168 6.5 -12.7°
Reaches altitude 10° 06:07:27 10° 344° (NNW) 1,747 6.0 -12.5°
Maximum altitude 06:11:13 59° 265° (W) 599 3.7 -11.9°
Drops below altitude 10° 06:14:58 10° 186° (S) 1,736 6.6 -11.2°
Sets 06:17:06 0° 182° (S) 2,618 7.5 -10.9°
